DLH216 GMMN-OTHH

Flight info

Callsign DLH216
Flight time 6h 29m
Altitude 33000
Route SADIC UR975 FES UA411 EMKOK/N0480F350 UA411 ORSUP UZ888 DIMAO UL874 OMENI DCT ARLOS/N0474F370 DCT SALUN N705 BOPIX N710 TAKRI M720 FYM M872 WEJ L604 KFA M691 LADNA N318 HAYYA
Aircraft A346/H-SDE2E3FGHIJ3J4J5M1RWXY/LB1D1

Departure

Time 2026-05-07 17:24
Airport Mohammed V International Airport (GMMN)

Arrival

Time 2026-05-07 23:54
Airport Hamad International Airport (OTHH)
Time Latitude Longitude Altitude Speed Heading
2026-05-07 16:05 33.37487 -7.58331 661 ft 0 kts 77°
2026-05-07 16:55 33.37487 -7.58332 661 ft 1 kts 77°
2026-05-07 16:55 33.37482 -7.58357 661 ft 4 kts 82°
2026-05-07 16:55 33.37480 -7.58389 661 ft 4 kts 86°
2026-05-07 16:56 33.37479 -7.58421 661 ft 4 kts 90°
2026-05-07 16:56 33.37479 -7.58452 661 ft 2 kts 91°
2026-05-07 16:56 33.37479 -7.58454 661 ft 0 kts 91°
2026-05-07 17:00 33.37479 -7.58453 661 ft 2 kts 92°
2026-05-07 17:00 33.37440 -7.58383 661 ft 13 kts 155°
2026-05-07 17:00 33.37351 -7.58352 661 ft 14 kts 164°
2026-05-07 17:00 33.37255 -7.58320 661 ft 15 kts 164°
2026-05-07 17:01 33.37149 -7.58285 661 ft 16 kts 164°
2026-05-07 17:01 33.37066 -7.58257 661 ft 11 kts 164°
2026-05-07 17:01 33.36987 -7.58236 661 ft 11 kts 187°
2026-05-07 17:01 33.36932 -7.58310 661 ft 13 kts 246°
2026-05-07 17:02 33.36900 -7.58418 661 ft 14 kts 248°
2026-05-07 17:02 33.36819 -7.58450 661 ft 14 kts 171°
2026-05-07 17:02 33.36723 -7.58418 661 ft 15 kts 162°
2026-05-07 17:02 33.36624 -7.58376 661 ft 15 kts 168°
2026-05-07 17:03 33.36518 -7.58348 661 ft 15 kts 164°
2026-05-07 17:03 33.36419 -7.58315 661 ft 5 kts 164°
2026-05-07 17:03 33.36375 -7.58300 661 ft 8 kts 163°
2026-05-07 17:03 33.36315 -7.58275 661 ft 10 kts 157°
2026-05-07 17:04 33.36238 -7.58253 661 ft 12 kts 170°
2026-05-07 17:04 33.36151 -7.58225 661 ft 14 kts 162°
2026-05-07 17:04 33.36056 -7.58187 661 ft 15 kts 158°
2026-05-07 17:04 33.35958 -7.58147 661 ft 15 kts 165°
2026-05-07 17:05 33.35851 -7.58116 661 ft 16 kts 167°
2026-05-07 17:05 33.35752 -7.58086 660 ft 14 kts 163°
2026-05-07 17:05 33.35653 -7.58051 660 ft 15 kts 164°
2026-05-07 17:05 33.35612 -7.58037 661 ft 7 kts 165°
2026-05-07 17:06 33.35578 -7.58027 661 ft 0 kts 165°
2026-05-07 17:06 33.35569 -7.58024 661 ft 7 kts 165°
2026-05-07 17:06 33.35507 -7.58003 661 ft 5 kts 164°
2026-05-07 17:08 33.35506 -7.58003 661 ft 0 kts 164°
2026-05-07 17:08 33.35468 -7.57989 661 ft 13 kts 163°
2026-05-07 17:08 33.35396 -7.57965 661 ft 1 kts 164°
2026-05-07 17:09 33.35396 -7.57964 661 ft 0 kts 164°
2026-05-07 17:10 33.35357 -7.57952 661 ft 1 kts 169°
2026-05-07 17:11 33.35332 -7.57948 661 ft 0 kts 176°
2026-05-07 17:11 33.35331 -7.57948 661 ft 0 kts 178°
2026-05-07 17:15 33.35330 -7.57948 661 ft 1 kts 178°
2026-05-07 17:15 33.35305 -7.57954 661 ft 7 kts 198°
2026-05-07 17:15 33.35280 -7.57972 661 ft 5 kts 213°
2026-05-07 17:15 33.35261 -7.57996 661 ft 3 kts 244°
2026-05-07 17:16 33.35255 -7.58013 661 ft 0 kts 248°
2026-05-07 17:16 33.35255 -7.58014 661 ft 0 kts 248°
2026-05-07 17:18 33.35247 -7.58039 661 ft 1 kts 250°
2026-05-07 17:19 33.35241 -7.58061 661 ft 0 kts 254°
2026-05-07 17:20 33.35241 -7.58062 661 ft 0 kts 254°
2026-05-07 17:21 33.35230 -7.58105 661 ft 12 kts 254°
2026-05-07 17:21 33.35228 -7.58239 662 ft 18 kts 303°
2026-05-07 17:21 33.35269 -7.58275 662 ft 0 kts 339°
2026-05-07 17:23 33.35291 -7.58285 662 ft 19 kts 339°
2026-05-07 17:23 33.35580 -7.58379 654 ft 70 kts 345°
2026-05-07 17:23 33.36220 -7.58598 660 ft 120 kts 344°
2026-05-07 17:23 33.37166 -7.58922 661 ft 161 kts 344°
2026-05-07 17:24 33.38328 -7.59340 873 ft 180 kts 342°
2026-05-07 17:24 33.39540 -7.59767 1363 ft 181 kts 345°
2026-05-07 17:24 33.40754 -7.60154 1931 ft 179 kts 347°
2026-05-07 17:24 33.41992 -7.60301 2422 ft 181 kts
2026-05-07 17:25 33.43292 -7.60168 2709 ft 194 kts
2026-05-07 17:25 33.44556 -7.59520 3008 ft 209 kts 38°
2026-05-07 17:25 33.45355 -7.58020 3359 ft 224 kts 67°
2026-05-07 17:25 33.45802 -7.56182 3709 ft 237 kts 72°
2026-05-07 17:26 33.46263 -7.54206 3992 ft 254 kts 73°
2026-05-07 17:26 33.46742 -7.52092 4341 ft 269 kts 74°
2026-05-07 17:26 33.47243 -7.49886 4908 ft 275 kts 75°
2026-05-07 17:26 33.47749 -7.47668 5599 ft 277 kts 75°
2026-05-07 17:27 33.48257 -7.45453 6287 ft 280 kts 76°
2026-05-07 17:27 33.48608 -7.43926 6695 ft 283 kts 77°
2026-05-07 17:27 33.49128 -7.41635 7306 ft 287 kts 77°
2026-05-07 17:27 33.49830 -7.38538 8176 ft 293 kts 77°
2026-05-07 17:28 33.50370 -7.36164 8850 ft 298 kts 77°
2026-05-07 17:28 33.50920 -7.33746 9535 ft 302 kts 77°
2026-05-07 17:28 33.51288 -7.32126 9964 ft 305 kts 77°
2026-05-07 17:28 33.51853 -7.29641 10459 ft 315 kts 77°
2026-05-07 17:29 33.52444 -7.27040 10750 ft 331 kts 77°
2026-05-07 17:29 33.53063 -7.24310 11044 ft 348 kts 77°
2026-05-07 17:29 33.53714 -7.21441 11305 ft 364 kts 77°
2026-05-07 17:29 33.54396 -7.18440 11599 ft 380 kts 77°
2026-05-07 17:30 33.55107 -7.15318 11881 ft 396 kts 76°
2026-05-07 17:30 33.55846 -7.12066 12248 ft 408 kts 77°
2026-05-07 17:30 33.56591 -7.08760 12885 ft 412 kts 77°
2026-05-07 17:30 33.57341 -7.05427 13593 ft 415 kts 77°
2026-05-07 17:31 33.58099 -7.02056 14192 ft 420 kts 77°
2026-05-07 17:31 33.58863 -6.98651 14739 ft 425 kts 77°
2026-05-07 17:31 33.59629 -6.95245 15259 ft 430 kts 77°
2026-05-07 17:31 33.60412 -6.91758 15766 ft 435 kts 77°
2026-05-07 17:32 33.61203 -6.88229 16294 ft 440 kts 77°
2026-05-07 17:32 33.62002 -6.84667 16810 ft 445 kts 76°
2026-05-07 17:32 33.62811 -6.81048 17330 ft 451 kts 76°
2026-05-07 17:32 33.63627 -6.77399 17837 ft 456 kts 76°
2026-05-07 17:33 33.64453 -6.73701 18314 ft 461 kts 76°
2026-05-07 17:33 33.65287 -6.69960 18741 ft 465 kts 76°
2026-05-07 17:33 33.66128 -6.66182 19210 ft 469 kts 76°
2026-05-07 17:33 33.66973 -6.62378 19682 ft 473 kts 76°
2026-05-07 17:34 33.67823 -6.58548 20154 ft 476 kts 76°
2026-05-07 17:34 33.68678 -6.54688 20625 ft 480 kts 76°
2026-05-07 17:34 33.69540 -6.50789 21081 ft 484 kts 76°
2026-05-07 17:34 33.70409 -6.46857 21526 ft 488 kts 76°
2026-05-07 17:35 33.71280 -6.42896 21989 ft 492 kts 76°
2026-05-07 17:35 33.72158 -6.38902 22444 ft 495 kts 76°
2026-05-07 17:35 33.73036 -6.34878 22871 ft 499 kts 77°
2026-05-07 17:35 33.73784 -6.30788 23302 ft 502 kts 80°
2026-05-07 17:36 33.74432 -6.26638 23690 ft 506 kts 81°
2026-05-07 17:36 33.75059 -6.22459 24054 ft 509 kts 81°
2026-05-07 17:36 33.75686 -6.18251 24446 ft 512 kts 81°
2026-05-07 17:36 33.76317 -6.14014 24837 ft 514 kts 81°
2026-05-07 17:37 33.76952 -6.09765 25226 ft 517 kts 81°
2026-05-07 17:37 33.77593 -6.05476 25604 ft 519 kts 81°
2026-05-07 17:37 33.78235 -6.01183 25991 ft 522 kts 80°
2026-05-07 17:37 33.78877 -5.96894 26383 ft 524 kts 80°
2026-05-07 17:38 33.79524 -5.92564 26749 ft 526 kts 80°
2026-05-07 17:38 33.80174 -5.88206 27108 ft 529 kts 80°
2026-05-07 17:38 33.80823 -5.83838 27462 ft 531 kts 80°
2026-05-07 17:38 33.81465 -5.79505 27803 ft 534 kts 80°
2026-05-07 17:39 33.82114 -5.75102 28166 ft 536 kts 80°
2026-05-07 17:39 33.82767 -5.70670 28561 ft 537 kts 80°
2026-05-07 17:39 33.83413 -5.66235 29086 ft 536 kts 80°
2026-05-07 17:39 33.84056 -5.61825 29631 ft 534 kts 80°
2026-05-07 17:40 33.84698 -5.57424 30123 ft 532 kts 80°
2026-05-07 17:40 33.85339 -5.53032 30539 ft 531 kts 80°
2026-05-07 17:40 33.85976 -5.48651 30939 ft 531 kts 79°
2026-05-07 17:40 33.86610 -5.44278 31322 ft 530 kts 79°
2026-05-07 17:41 33.87246 -5.39885 31661 ft 531 kts 79°
2026-05-07 17:41 33.87880 -5.35491 31951 ft 533 kts 79°
2026-05-07 17:41 33.88512 -5.31093 32252 ft 534 kts 79°
2026-05-07 17:41 33.89145 -5.26669 32542 ft 536 kts 79°
2026-05-07 17:42 33.89781 -5.22229 32845 ft 537 kts 79°
2026-05-07 17:42 33.90415 -5.17788 32932 ft 538 kts 79°
2026-05-07 17:42 33.91681 -5.08880 32939 ft 539 kts 79°
2026-05-07 17:43 33.93243 -5.00101 32940 ft 538 kts 73°
2026-05-07 17:43 33.95553 -4.91550 32937 ft 536 kts 68°
2026-05-07 17:44 33.98070 -4.83095 32939 ft 535 kts 68°
2026-05-07 17:44 34.00567 -4.74647 32942 ft 535 kts 69°
2026-05-07 17:45 34.03047 -4.66167 32934 ft 535 kts 69°
2026-05-07 17:45 34.05509 -4.57704 32933 ft 535 kts 69°
2026-05-07 17:46 34.07965 -4.49224 32934 ft 534 kts 69°
2026-05-07 17:46 34.10418 -4.40742 32935 ft 534 kts 69°
2026-05-07 17:47 34.12849 -4.32313 32933 ft 534 kts 69°
2026-05-07 17:47 34.15289 -4.23819 32929 ft 535 kts 69°
2026-05-07 17:48 34.17720 -4.15316 32930 ft 536 kts 69°
2026-05-07 17:48 34.20083 -4.06765 32915 ft 536 kts 70°
2026-05-07 17:49 34.22424 -3.98219 32918 ft 536 kts 70°
2026-05-07 17:49 34.24769 -3.89663 32919 ft 536 kts 70°
2026-05-07 17:50 34.27113 -3.81095 32898 ft 536 kts 70°
2026-05-07 17:50 34.29451 -3.72530 32901 ft 536 kts 70°
2026-05-07 17:51 34.31786 -3.63944 32896 ft 536 kts 70°
2026-05-07 17:51 34.34114 -3.55360 32897 ft 536 kts 70°
2026-05-07 17:52 34.36421 -3.46824 32891 ft 536 kts 70°
2026-05-07 17:52 34.38777 -3.38259 32890 ft 534 kts 69°
2026-05-07 17:53 34.41133 -3.29738 32884 ft 533 kts 69°
2026-05-07 17:53 34.43481 -3.21216 32893 ft 533 kts 70°
2026-05-07 17:54 34.45820 -3.12680 32887 ft 532 kts 70°
2026-05-07 17:54 34.48151 -3.04152 32897 ft 532 kts 70°
2026-05-07 17:55 34.50480 -2.95603 32891 ft 534 kts 70°
2026-05-07 17:55 34.52807 -2.87037 32891 ft 534 kts 70°
2026-05-07 17:56 34.55128 -2.78465 32891 ft 534 kts 70°
2026-05-07 17:56 34.57454 -2.69902 32899 ft 534 kts 69°
2026-05-07 17:57 34.59406 -2.62776 32896 ft 535 kts 69°
2026-05-07 17:57 34.62114 -2.52745 32910 ft 535 kts 70°
2026-05-07 17:58 34.64403 -2.44124 32919 ft 535 kts 70°
2026-05-07 17:58 34.66688 -2.35503 32919 ft 535 kts 70°
2026-05-07 17:59 34.68969 -2.26884 32927 ft 535 kts 70°
2026-05-07 17:59 34.71244 -2.18263 32935 ft 534 kts 70°
2026-05-07 18:00 34.73513 -2.09624 32944 ft 537 kts 69°
2026-05-07 18:00 34.76042 -2.01154 32939 ft 535 kts 63°
2026-05-07 18:01 34.79404 -1.93134 32940 ft 530 kts 55°
2026-05-07 18:01 34.83398 -1.85633 32953 ft 527 kts 52°
2026-05-07 18:02 34.88974 -1.74032 32944 ft 532 kts 60°
2026-05-07 18:03 34.92195 -1.65894 32929 ft 532 kts 61°
2026-05-07 18:03 34.95389 -1.57750 32918 ft 532 kts 60°
2026-05-07 18:04 34.98601 -1.49585 32946 ft 532 kts 60°
2026-05-07 18:04 35.01803 -1.41447 32919 ft 533 kts 60°
2026-05-07 18:05 35.05016 -1.33280 32917 ft 533 kts 60°
2026-05-07 18:05 35.08197 -1.25170 32928 ft 533 kts 60°
2026-05-07 18:06 35.11398 -1.16986 32935 ft 533 kts 60°
2026-05-07 18:06 35.14590 -1.08796 32945 ft 533 kts 60°
2026-05-07 18:07 35.17785 -1.00588 32951 ft 533 kts 60°
2026-05-07 18:07 35.20964 -0.92404 32951 ft 533 kts 60°
2026-05-07 18:08 35.24139 -0.84204 32949 ft 533 kts 60°
2026-05-07 18:08 35.27289 -0.76043 32946 ft 534 kts 60°
2026-05-07 18:09 35.30464 -0.67807 32931 ft 534 kts 60°
2026-05-07 18:09 35.33638 -0.59565 32924 ft 534 kts 60°
2026-05-07 18:10 35.36803 -0.51323 32920 ft 534 kts 60°
2026-05-07 18:10 35.39960 -0.43078 32918 ft 534 kts 60°
2026-05-07 18:11 35.43114 -0.34821 32917 ft 534 kts 60°
2026-05-07 18:11 35.46263 -0.26558 32937 ft 534 kts 60°
2026-05-07 18:12 35.49412 -0.18271 32938 ft 534 kts 60°
2026-05-07 18:12 35.52551 -0.09985 32947 ft 535 kts 60°
2026-05-07 18:13 35.55690 -0.01685 32934 ft 536 kts 60°
2026-05-07 18:13 35.58799 0.06561 32933 ft 535 kts 60°
2026-05-07 18:14 35.61924 0.14863 32930 ft 535 kts 60°
2026-05-07 18:14 35.65050 0.23193 32931 ft 535 kts 60°
2026-05-07 18:15 35.68159 0.31512 32930 ft 535 kts 60°
2026-05-07 18:15 35.70758 0.38484 32932 ft 535 kts 60°
2026-05-07 18:16 35.73841 0.46772 32931 ft 535 kts 60°
2026-05-07 18:16 35.76940 0.55120 32927 ft 536 kts 60°
2026-05-07 18:17 35.80042 0.63494 32926 ft 537 kts 60°
2026-05-07 18:17 35.83138 0.71873 32927 ft 537 kts 60°
2026-05-07 18:18 35.86231 0.80269 32930 ft 537 kts 60°
2026-05-07 18:18 35.89316 0.88665 32943 ft 536 kts 60°
2026-05-07 18:19 35.92392 0.97060 32928 ft 536 kts 60°
2026-05-07 18:19 35.95464 1.05463 32948 ft 537 kts 61°
2026-05-07 18:20 35.98530 1.13875 32921 ft 537 kts 61°
2026-05-07 18:20 36.01594 1.22301 32927 ft 537 kts 61°
2026-05-07 18:21 36.04627 1.30663 32943 ft 536 kts 61°
2026-05-07 18:21 36.07681 1.39112 32944 ft 536 kts 61°
2026-05-07 18:22 36.10438 1.47730 32947 ft 541 kts 68°
2026-05-07 18:22 36.12382 1.56762 32940 ft 545 kts 75°
2026-05-07 18:23 36.13578 1.66080 32923 ft 546 kts 79°
2026-05-07 18:23 36.14632 1.75398 32928 ft 546 kts 79°
2026-05-07 18:24 36.15716 1.84721 32918 ft 546 kts 79°
2026-05-07 18:24 36.16805 1.93987 32920 ft 546 kts 79°
2026-05-07 18:25 36.17888 2.03296 32930 ft 546 kts 79°
2026-05-07 18:25 36.18963 2.12621 32925 ft 546 kts 79°
2026-05-07 18:26 36.20032 2.21941 32926 ft 546 kts 79°
2026-05-07 18:26 36.21095 2.31261 32924 ft 546 kts 79°
2026-05-07 18:27 36.22155 2.40597 32927 ft 546 kts 79°
2026-05-07 18:27 36.23205 2.49940 32929 ft 547 kts 79°
2026-05-07 18:28 36.24249 2.59301 32927 ft 548 kts 80°
2026-05-07 18:28 36.25286 2.68681 32921 ft 548 kts 81°
2026-05-07 18:29 36.26313 2.78026 32922 ft 546 kts 81°
2026-05-07 18:29 36.27323 2.87377 32922 ft 546 kts 81°
2026-05-07 18:30 36.28331 2.96724 32921 ft 546 kts 81°
2026-05-07 18:30 36.29324 3.06001 32910 ft 546 kts 81°
2026-05-07 18:31 36.30327 3.15355 32924 ft 543 kts 81°
2026-05-07 18:31 36.31305 3.24653 32920 ft 543 kts 82°
2026-05-07 18:32 36.32278 3.33958 32913 ft 543 kts 82°
2026-05-07 18:32 36.33246 3.43266 32916 ft 543 kts 82°
2026-05-07 18:33 36.34207 3.52566 32919 ft 543 kts 82°
2026-05-07 18:33 36.35163 3.61888 32923 ft 543 kts 82°
2026-05-07 18:34 36.36111 3.71201 32924 ft 543 kts 82°
2026-05-07 18:34 36.37048 3.80520 32922 ft 544 kts 82°
2026-05-07 18:35 36.37982 3.89792 32919 ft 540 kts 83°
2026-05-07 18:35 36.38895 3.99053 32931 ft 540 kts 83°
2026-05-07 18:36 36.39802 4.08300 32930 ft 539 kts 83°
2026-05-07 18:36 36.40699 4.17502 32922 ft 540 kts 83°
2026-05-07 18:37 36.41605 4.26752 32932 ft 535 kts 84°
2026-05-07 18:37 36.42481 4.35886 32953 ft 534 kts 84°
2026-05-07 18:38 36.43355 4.45060 32938 ft 534 kts 84°
2026-05-07 18:38 36.44219 4.54248 32934 ft 534 kts 84°
2026-05-07 18:39 36.45087 4.63394 32933 ft 529 kts 86°
2026-05-07 18:39 36.45922 4.72408 32930 ft 526 kts 86°
2026-05-07 18:40 36.46752 4.81460 32922 ft 527 kts 86°
2026-05-07 18:40 36.47580 4.90516 32927 ft 527 kts 86°
2026-05-07 18:41 36.48317 4.99577 32922 ft 522 kts 90°
2026-05-07 18:41 36.48405 5.08541 32925 ft 518 kts 95°
2026-05-07 18:42 36.48280 5.17505 32926 ft 517 kts 95°
2026-05-07 18:42 36.48159 5.26455 32924 ft 517 kts 95°
2026-05-07 18:43 36.48050 5.35350 32914 ft 517 kts 95°
2026-05-07 18:43 36.47941 5.44303 32924 ft 515 kts 96°
2026-05-07 18:44 36.47818 5.53263 32920 ft 515 kts 96°
2026-05-07 18:44 36.47692 5.62105 32918 ft 515 kts 96°
2026-05-07 18:45 36.47560 5.71012 32918 ft 515 kts 96°
2026-05-07 18:45 36.47422 5.79952 32902 ft 518 kts 96°
2026-05-07 18:46 36.47272 5.88928 32909 ft 518 kts 96°
2026-05-07 18:46 36.47115 5.97904 32900 ft 518 kts 96°
2026-05-07 18:47 36.46950 6.06849 32907 ft 518 kts 96°
2026-05-07 18:47 36.46775 6.15861 32889 ft 525 kts 96°
2026-05-07 18:48 36.46597 6.24904 32893 ft 527 kts 96°
2026-05-07 18:48 36.46413 6.34014 32888 ft 526 kts 96°
2026-05-07 18:49 36.46222 6.43120 32893 ft 527 kts 96°
2026-05-07 18:49 36.46016 6.52272 32881 ft 533 kts 96°
2026-05-07 18:50 36.45806 6.61515 32903 ft 535 kts 96°
2026-05-07 18:50 36.45593 6.70770 32905 ft 535 kts 96°
2026-05-07 18:51 36.45371 6.80019 32902 ft 535 kts 96°
2026-05-07 18:51 36.45141 6.89283 32884 ft 540 kts 96°
2026-05-07 18:52 36.44898 6.98614 32886 ft 544 kts 96°
2026-05-07 18:52 36.44649 7.08006 32878 ft 544 kts 96°
2026-05-07 18:53 36.44391 7.17404 32875 ft 543 kts 96°
2026-05-07 18:53 36.44128 7.26795 32881 ft 544 kts 96°
2026-05-07 18:54 36.43855 7.36217 32875 ft 544 kts 96°
2026-05-07 18:54 36.43575 7.45621 32874 ft 543 kts 96°
2026-05-07 18:55 36.43289 7.55016 32876 ft 543 kts 96°
2026-05-07 18:55 36.42999 7.64424 32858 ft 547 kts 97°
2026-05-07 18:56 36.42693 7.73909 32874 ft 550 kts 97°
2026-05-07 18:56 36.42381 7.83357 32870 ft 549 kts 97°
2026-05-07 18:57 36.42062 7.92845 32873 ft 549 kts 97°
2026-05-07 18:57 36.41736 8.02354 32865 ft 551 kts 97°
2026-05-07 18:58 36.41403 8.11873 32873 ft 551 kts 97°
2026-05-07 18:58 36.41061 8.21396 32869 ft 551 kts 97°
2026-05-07 18:59 36.40708 8.30950 32871 ft 551 kts 98°
2026-05-07 18:59 36.39934 8.40326 32870 ft 549 kts 105°
2026-05-07 19:00 36.38498 8.49636 32870 ft 547 kts 108°
2026-05-07 19:00 36.36991 8.58913 32871 ft 548 kts 108°
2026-05-07 19:01 36.35500 8.68190 32877 ft 548 kts 108°
2026-05-07 19:01 36.34022 8.77443 32857 ft 550 kts 108°
2026-05-07 19:02 36.32522 8.86766 32867 ft 551 kts 108°
2026-05-07 19:02 36.31011 8.96107 32871 ft 551 kts 108°
2026-05-07 19:03 36.29499 9.05422 32873 ft 551 kts 108°
2026-05-07 19:03 36.27983 9.14751 32852 ft 554 kts 109°
2026-05-07 19:04 36.26701 9.22560 32862 ft 556 kts 109°
2026-05-07 19:04 36.25171 9.31956 32867 ft 557 kts 108°
2026-05-07 19:05 36.23984 9.41495 32884 ft 560 kts 105°
2026-05-07 19:05 36.22884 9.51069 32860 ft 560 kts 107°
2026-05-07 19:06 36.21762 9.60631 32877 ft 559 kts 107°
2026-05-07 19:06 36.20048 9.74879 32886 ft 559 kts 107°
2026-05-07 19:07 36.18894 9.84410 32853 ft 559 kts 107°
2026-05-07 19:07 36.17734 9.93946 32879 ft 558 kts 107°
2026-05-07 19:08 36.16571 10.03463 32884 ft 558 kts 107°
2026-05-07 19:08 36.15263 10.12917 32885 ft 553 kts 111°
2026-05-07 19:09 36.13205 10.21983 32860 ft 544 kts 117°
2026-05-07 19:09 36.10794 10.30862 32882 ft 543 kts 117°
2026-05-07 19:10 36.08640 10.39880 32883 ft 551 kts 111°
2026-05-07 19:10 36.07310 10.49311 32886 ft 560 kts 103°
2026-05-07 19:11 36.06850 10.58992 32858 ft 565 kts 98°
2026-05-07 19:11 36.06635 10.68672 32898 ft 562 kts 98°
2026-05-07 19:12 36.06390 10.78286 32890 ft 562 kts 98°
2026-05-07 19:12 36.06105 10.87949 32885 ft 561 kts 98°
2026-05-07 19:13 36.05805 10.97623 32881 ft 562 kts 98°
2026-05-07 19:13 36.05497 11.07285 32883 ft 562 kts 98°
2026-05-07 19:14 36.05185 11.16899 32883 ft 562 kts 98°
2026-05-07 19:14 36.04863 11.26562 32880 ft 562 kts 98°
2026-05-07 19:15 36.04529 11.36214 32872 ft 561 kts 98°
2026-05-07 19:15 36.04201 11.45853 32881 ft 561 kts 98°
2026-05-07 19:16 36.03684 11.55459 32888 ft 558 kts 101°
2026-05-07 19:16 36.02963 11.65013 32898 ft 558 kts 102°
2026-05-07 19:17 36.02226 11.74508 32889 ft 557 kts 101°
2026-05-07 19:17 36.01491 11.84074 32896 ft 557 kts 101°
2026-05-07 19:18 36.00755 11.93621 32896 ft 557 kts 101°
2026-05-07 19:18 36.00013 12.03152 32896 ft 557 kts 101°
2026-05-07 19:19 35.99260 12.12684 32896 ft 557 kts 101°
2026-05-07 19:19 35.98503 12.22219 32899 ft 556 kts 101°
2026-05-07 19:20 35.97746 12.31655 32896 ft 556 kts 101°
2026-05-07 19:20 35.96973 12.41188 32870 ft 556 kts 101°
2026-05-07 19:21 35.96191 12.50688 32900 ft 555 kts 101°
2026-05-07 19:21 35.95407 12.60182 32904 ft 555 kts 101°
2026-05-07 19:22 35.94615 12.69676 32910 ft 555 kts 101°
2026-05-07 19:22 35.93815 12.79164 32893 ft 555 kts 101°
2026-05-07 19:23 35.93005 12.88643 32907 ft 554 kts 101°
2026-05-07 19:23 35.92192 12.98117 32910 ft 554 kts 101°
2026-05-07 19:24 35.91377 13.07524 32908 ft 554 kts 101°
2026-05-07 19:24 35.90547 13.16993 32894 ft 554 kts 101°
2026-05-07 19:25 35.89708 13.26469 32905 ft 554 kts 101°
2026-05-07 19:25 35.88867 13.35925 32906 ft 554 kts 101°
2026-05-07 19:26 35.88017 13.45377 32905 ft 554 kts 101°
2026-05-07 19:26 35.87156 13.54842 32900 ft 553 kts 101°
2026-05-07 19:27 35.86289 13.64310 32908 ft 553 kts 101°
2026-05-07 19:27 35.85420 13.73731 32902 ft 553 kts 101°
2026-05-07 19:28 35.84542 13.83161 32899 ft 553 kts 101°
2026-05-07 19:28 35.83656 13.92547 32900 ft 552 kts 101°
2026-05-07 19:29 35.82766 14.01946 32906 ft 552 kts 101°
2026-05-07 19:29 35.81868 14.11355 32895 ft 552 kts 101°
2026-05-07 19:30 35.80961 14.20773 32883 ft 552 kts 101°
2026-05-07 19:30 35.80043 14.30172 32864 ft 552 kts 101°
2026-05-07 19:31 35.79124 14.39570 32857 ft 552 kts 101°
2026-05-07 19:31 35.78198 14.48963 32858 ft 552 kts 101°
2026-05-07 19:32 35.77263 14.58356 32864 ft 552 kts 101°
2026-05-07 19:32 35.76319 14.67768 32877 ft 552 kts 101°
2026-05-07 19:33 35.75368 14.77155 32888 ft 552 kts 101°
2026-05-07 19:33 35.74411 14.86545 32903 ft 552 kts 101°
2026-05-07 19:34 35.73452 14.95859 32898 ft 551 kts 101°
2026-05-07 19:34 35.72483 15.05208 32908 ft 549 kts 101°
2026-05-07 19:35 35.71510 15.14543 32910 ft 549 kts 101°
2026-05-07 19:35 35.70529 15.23869 32913 ft 549 kts 101°
2026-05-07 19:36 35.69537 15.33205 32906 ft 549 kts 101°
2026-05-07 19:36 35.68543 15.42512 32909 ft 548 kts 101°
2026-05-07 19:37 35.67543 15.51826 32916 ft 548 kts 101°
2026-05-07 19:37 35.66533 15.61150 32913 ft 548 kts 101°
2026-05-07 19:38 35.65512 15.70455 32912 ft 548 kts 100°
2026-05-07 19:38 35.64489 15.79767 32917 ft 548 kts 100°
2026-05-07 19:39 35.63469 15.89006 32916 ft 548 kts 101°
2026-05-07 19:39 35.62432 15.98307 32918 ft 548 kts 101°
2026-05-07 19:40 35.61386 16.07597 32917 ft 549 kts 100°
2026-05-07 19:40 35.60333 16.16905 32918 ft 549 kts 100°
2026-05-07 19:41 35.59274 16.26209 32916 ft 549 kts 101°
2026-05-07 19:41 35.58206 16.35521 32907 ft 549 kts 101°
2026-05-07 19:42 35.57132 16.44821 32916 ft 549 kts 101°
2026-05-07 19:42 35.56050 16.54114 32921 ft 549 kts 101°
2026-05-07 19:43 35.54961 16.63411 32924 ft 549 kts 101°
2026-05-07 19:43 35.53864 16.72692 32913 ft 549 kts 101°
2026-05-07 19:44 35.52766 16.81919 32930 ft 549 kts 100°
2026-05-07 19:44 35.51657 16.91216 32934 ft 549 kts 101°
2026-05-07 19:45 35.50542 17.00499 32930 ft 549 kts 101°
2026-05-07 19:45 35.49411 17.09785 32940 ft 549 kts 100°
2026-05-07 19:46 35.48280 17.19057 32939 ft 549 kts 100°
2026-05-07 19:46 35.47147 17.28323 32942 ft 549 kts 100°
2026-05-07 19:47 35.46004 17.37590 32946 ft 548 kts 100°
2026-05-07 19:47 35.44850 17.46837 32948 ft 547 kts 100°
2026-05-07 19:48 35.43698 17.56061 32946 ft 546 kts 100°
2026-05-07 19:48 35.42538 17.65282 32955 ft 546 kts 100°
2026-05-07 19:49 35.41370 17.74501 32965 ft 546 kts 100°
2026-05-07 19:49 35.40189 17.83721 32965 ft 547 kts 99°
2026-05-07 19:50 35.39005 17.92968 32977 ft 547 kts 99°
2026-05-07 19:50 35.37817 18.02198 32983 ft 549 kts 100°
2026-05-07 19:51 35.36817 18.09901 32979 ft 550 kts 100°
2026-05-07 19:51 35.35606 18.19169 32986 ft 550 kts 100°
2026-05-07 19:52 35.34188 18.29947 32984 ft 550 kts 100°
2026-05-07 19:52 35.33170 18.37646 32984 ft 550 kts 100°
2026-05-07 19:53 35.31934 18.46898 32991 ft 549 kts 99°
2026-05-07 19:53 35.30698 18.56119 32983 ft 547 kts 99°
2026-05-07 19:54 35.29462 18.65337 32998 ft 547 kts 99°
2026-05-07 19:54 35.28218 18.74539 33003 ft 547 kts 99°
2026-05-07 19:55 35.26965 18.83721 32996 ft 545 kts 99°
2026-05-07 19:55 35.25711 18.92876 33006 ft 544 kts 99°
2026-05-07 19:56 35.24455 19.02008 33016 ft 544 kts 99°
2026-05-07 19:56 35.23189 19.11148 33014 ft 544 kts 99°
2026-05-07 19:57 35.21922 19.20208 33015 ft 540 kts 99°
2026-05-07 19:57 35.20653 19.29276 33016 ft 540 kts 99°
2026-05-07 19:58 35.19377 19.38340 33020 ft 540 kts 99°
2026-05-07 19:58 35.18093 19.47400 33017 ft 540 kts 99°
2026-05-07 19:59 35.16792 19.56502 33028 ft 544 kts 99°
2026-05-07 19:59 35.15488 19.65618 33024 ft 544 kts 99°
2026-05-07 20:00 35.14176 19.74730 33031 ft 544 kts 99°
2026-05-07 20:00 35.12853 19.83855 33037 ft 543 kts 99°
2026-05-07 20:01 35.11526 19.92961 33033 ft 542 kts 99°
2026-05-07 20:01 35.10196 20.02045 33037 ft 542 kts 99°
2026-05-07 20:02 35.08868 20.11060 33037 ft 542 kts 99°
2026-05-07 20:02 35.07523 20.20125 33036 ft 542 kts 99°
2026-05-07 20:03 35.06174 20.29189 33040 ft 541 kts 99°
2026-05-07 20:03 35.04821 20.38235 33044 ft 541 kts 99°
2026-05-07 20:04 35.03460 20.47287 33057 ft 541 kts 99°
2026-05-07 20:04 35.02083 20.56351 33051 ft 542 kts 99°
2026-05-07 20:05 35.00708 20.65411 33050 ft 542 kts 99°
2026-05-07 20:05 34.99327 20.74462 33050 ft 542 kts 99°
2026-05-07 20:06 34.97934 20.83518 33062 ft 542 kts 98°
2026-05-07 20:06 34.96544 20.92498 33064 ft 542 kts 98°
2026-05-07 20:07 34.95136 21.01588 33060 ft 542 kts 98°
2026-05-07 20:07 34.93737 21.10569 33071 ft 542 kts 98°
2026-05-07 20:08 34.92323 21.19595 33064 ft 540 kts 99°
2026-05-07 20:08 34.90907 21.28577 33071 ft 539 kts 99°
2026-05-07 20:09 34.89483 21.37565 33064 ft 539 kts 99°
2026-05-07 20:10 34.87337 21.51026 33076 ft 539 kts 99°
2026-05-07 20:10 34.85897 21.60006 33076 ft 539 kts 99°
2026-05-07 20:11 34.84460 21.68919 33078 ft 539 kts 99°
2026-05-07 20:11 34.83007 21.77891 33077 ft 539 kts 99°
2026-05-07 20:12 34.81547 21.86862 33084 ft 540 kts 99°
2026-05-07 20:12 34.80077 21.95849 33088 ft 540 kts 99°
2026-05-07 20:13 34.78602 22.04827 33086 ft 541 kts 99°
2026-05-07 20:13 34.77118 22.13814 33090 ft 541 kts 99°
2026-05-07 20:14 34.75619 22.22813 33088 ft 542 kts 99°
2026-05-07 20:14 34.74122 22.31814 33088 ft 543 kts 99°
2026-05-07 20:15 34.72616 22.40819 33091 ft 543 kts 99°
2026-05-07 20:15 34.71101 22.49814 33095 ft 542 kts 98°
2026-05-07 20:16 34.69581 22.58802 33099 ft 542 kts 98°
2026-05-07 20:16 34.68058 22.67783 33103 ft 542 kts 99°
2026-05-07 20:17 34.66527 22.76763 33102 ft 542 kts 99°
2026-05-07 20:17 34.64999 22.85679 33110 ft 543 kts 99°
2026-05-07 20:18 34.63315 22.94670 33483 ft 548 kts 103°
2026-05-07 20:18 34.62196 22.99086 34063 ft 545 kts 107°
2026-05-07 20:18 34.60876 23.03383 34586 ft 542 kts 110°
2026-05-07 20:18 34.59352 23.07567 35048 ft 540 kts 114°
2026-05-07 20:19 34.57659 23.11642 35480 ft 539 kts 116°
2026-05-07 20:19 34.55927 23.15683 35833 ft 539 kts 116°
2026-05-07 20:19 34.54190 23.19720 36170 ft 539 kts 116°
2026-05-07 20:19 34.52458 23.23758 36512 ft 538 kts 116°
2026-05-07 20:20 34.50735 23.27785 36865 ft 537 kts 116°
2026-05-07 20:20 34.49020 23.31802 37116 ft 536 kts 116°
2026-05-07 20:20 34.47305 23.35820 37116 ft 535 kts 116°
2026-05-07 20:21 34.43883 23.43836 37127 ft 535 kts 116°
2026-05-07 20:21 34.40464 23.51818 37132 ft 537 kts 115°
2026-05-07 20:22 34.37021 23.59849 37124 ft 536 kts 115°
2026-05-07 20:22 34.33577 23.67861 37136 ft 536 kts 115°
2026-05-07 20:23 34.30129 23.75863 37149 ft 536 kts 115°
2026-05-07 20:23 34.26661 23.83884 37144 ft 537 kts 115°
2026-05-07 20:24 34.23189 23.91908 37143 ft 538 kts 115°
2026-05-07 20:24 34.19712 23.99924 37143 ft 538 kts 115°
2026-05-07 20:25 34.16232 24.07925 37156 ft 538 kts 115°
2026-05-07 20:25 34.12751 24.15902 37150 ft 536 kts 115°
2026-05-07 20:26 34.09297 24.23814 37150 ft 535 kts 115°
2026-05-07 20:26 34.05810 24.31778 37154 ft 535 kts 115°
2026-05-07 20:27 34.02076 24.39569 37165 ft 538 kts 121°
2026-05-07 20:27 33.97571 24.46815 37156 ft 540 kts 130°
2026-05-07 20:28 33.92333 24.53336 37147 ft 541 kts 137°
2026-05-07 20:28 33.86705 24.59344 37153 ft 540 kts 139°
2026-05-07 20:29 33.81068 24.65333 37157 ft 540 kts 138°
2026-05-07 20:29 33.75452 24.71329 37157 ft 540 kts 138°
2026-05-07 20:30 33.69826 24.77340 37159 ft 540 kts 138°
2026-05-07 20:30 33.64208 24.83337 37161 ft 540 kts 138°
2026-05-07 20:31 33.58624 24.89283 37157 ft 540 kts 138°
2026-05-07 20:31 33.53004 24.95261 37160 ft 540 kts 138°
2026-05-07 20:32 33.47382 25.01230 37162 ft 540 kts 138°
2026-05-07 20:32 33.41745 25.07198 37161 ft 541 kts 138°
2026-05-07 20:33 33.36102 25.13169 37157 ft 541 kts 138°
2026-05-07 20:33 33.30454 25.19133 37160 ft 541 kts 138°
2026-05-07 20:34 33.24805 25.25087 37160 ft 541 kts 138°
2026-05-07 20:34 33.19152 25.31035 37157 ft 541 kts 138°
2026-05-07 20:35 33.13531 25.36935 37160 ft 540 kts 138°
2026-05-07 20:35 33.07878 25.42861 37155 ft 540 kts 138°
2026-05-07 20:36 33.02223 25.48779 37157 ft 540 kts 138°
2026-05-07 20:36 32.96570 25.54684 37153 ft 539 kts 138°
2026-05-07 20:37 32.90924 25.60571 37153 ft 539 kts 138°
2026-05-07 20:37 32.85281 25.66443 37158 ft 539 kts 138°
2026-05-07 20:38 32.79632 25.72312 37155 ft 538 kts 138°
2026-05-07 20:38 32.73987 25.78168 37160 ft 538 kts 138°
2026-05-07 20:39 32.69290 25.83032 37151 ft 538 kts 138°
2026-05-07 20:39 32.63636 25.88877 37158 ft 538 kts 138°
2026-05-07 20:40 32.57986 25.94709 37159 ft 538 kts 138°
2026-05-07 20:40 32.52337 26.00527 37162 ft 538 kts 138°
2026-05-07 20:41 32.46684 26.06342 37164 ft 538 kts 138°
2026-05-07 20:41 32.41028 26.12151 37165 ft 538 kts 138°
2026-05-07 20:42 32.35378 26.17942 37160 ft 537 kts 138°
2026-05-07 20:42 32.29725 26.23726 37165 ft 536 kts 138°
2026-05-07 20:43 32.24075 26.29497 37171 ft 536 kts 138°
2026-05-07 20:43 32.18452 26.35231 37166 ft 536 kts 138°
2026-05-07 20:44 32.12799 26.40986 37171 ft 536 kts 138°
2026-05-07 20:44 32.07142 26.46736 37157 ft 536 kts 138°
2026-05-07 20:45 32.01477 26.52482 37170 ft 536 kts 138°
2026-05-07 20:45 31.95815 26.58215 37179 ft 537 kts 138°
2026-05-07 20:46 31.90141 26.63949 37173 ft 538 kts 138°
2026-05-07 20:46 31.84457 26.69690 37171 ft 538 kts 138°
2026-05-07 20:47 31.78770 26.75424 37171 ft 538 kts 138°
2026-05-07 20:47 31.73082 26.81147 37165 ft 537 kts 138°
2026-05-07 20:48 31.67399 26.86854 37171 ft 537 kts 138°
2026-05-07 20:48 31.61690 26.92572 37182 ft 541 kts 137°
2026-05-07 20:49 31.55998 26.98275 37178 ft 541 kts 138°
2026-05-07 20:49 31.50270 27.04003 37181 ft 541 kts 138°
2026-05-07 20:50 31.44533 27.09728 37181 ft 541 kts 138°
2026-05-07 20:50 31.38797 27.15442 37183 ft 540 kts 138°
2026-05-07 20:51 31.32826 27.20817 37188 ft 545 kts 145°
2026-05-07 20:51 31.26312 27.25336 37186 ft 547 kts 153°
2026-05-07 20:52 31.19412 27.29108 37188 ft 546 kts 156°
2026-05-07 20:52 31.12496 27.32797 37175 ft 546 kts 155°
2026-05-07 20:53 31.05618 27.36511 37186 ft 544 kts 155°
2026-05-07 20:53 30.98810 27.40220 37179 ft 544 kts 154°
2026-05-07 20:54 30.92212 27.44536 37186 ft 543 kts 146°
2026-05-07 20:54 30.86122 27.49720 37190 ft 545 kts 139°
2026-05-07 20:55 30.80182 27.55286 37180 ft 547 kts 139°
2026-05-07 20:55 30.74239 27.60834 37175 ft 547 kts 139°
2026-05-07 20:56 30.68289 27.66345 37176 ft 547 kts 139°
2026-05-07 20:56 30.62326 27.71847 37168 ft 547 kts 139°
2026-05-07 20:57 30.56367 27.77336 37168 ft 547 kts 140°
2026-05-07 20:57 30.50403 27.82821 37153 ft 546 kts 140°
2026-05-07 20:58 30.44495 27.88245 37157 ft 544 kts 140°
2026-05-07 20:58 30.38554 27.93691 37160 ft 544 kts 140°
2026-05-07 20:59 30.32604 27.99136 37159 ft 544 kts 140°
2026-05-07 20:59 30.26663 28.04565 37154 ft 544 kts 140°
2026-05-07 21:00 30.20705 28.09999 37153 ft 546 kts 140°
2026-05-07 21:00 30.14718 28.15454 37154 ft 548 kts 140°
2026-05-07 21:01 30.08758 28.20876 37146 ft 548 kts 140°
2026-05-07 21:01 30.02763 28.26321 37144 ft 548 kts 140°
2026-05-07 21:02 29.96766 28.31760 37140 ft 548 kts 140°
2026-05-07 21:02 29.90786 28.37233 37155 ft 547 kts 137°
2026-05-07 21:03 29.85255 28.43259 37133 ft 545 kts 129°
2026-05-07 21:03 29.80431 28.49950 37138 ft 541 kts 123°
2026-05-07 21:04 29.75874 28.56866 37133 ft 541 kts 123°
2026-05-07 21:04 29.71294 28.63756 37127 ft 542 kts 123°
2026-05-07 21:05 29.66684 28.70622 37129 ft 542 kts 123°
2026-05-07 21:05 29.62060 28.77492 37125 ft 542 kts 123°
2026-05-07 21:06 29.57435 28.84353 37125 ft 542 kts 123°
2026-05-07 21:06 29.52809 28.91210 37124 ft 542 kts 123°
2026-05-07 21:07 29.48218 28.98011 37123 ft 541 kts 122°
2026-05-07 21:07 29.44403 29.05318 37117 ft 528 kts 108°
2026-05-07 21:08 29.42156 29.13223 37121 ft 514 kts 94°
2026-05-07 21:08 29.41455 29.21271 37124 ft 501 kts 82°
2026-05-07 21:09 29.41413 29.29274 37131 ft 501 kts 81°
2026-05-07 21:09 29.41366 29.37280 37126 ft 501 kts 82°
2026-05-07 21:10 29.41284 29.45293 37120 ft 501 kts 82°
2026-05-07 21:10 29.41184 29.53247 37119 ft 501 kts 82°
2026-05-07 21:11 29.41073 29.61258 37119 ft 501 kts 82°
2026-05-07 21:11 29.40900 29.73264 37115 ft 501 kts 82°
2026-05-07 21:12 29.40778 29.81266 37118 ft 501 kts 82°
2026-05-07 21:12 29.40648 29.89263 37120 ft 500 kts 82°
2026-05-07 21:13 29.40518 29.97245 37112 ft 499 kts 82°
2026-05-07 21:13 29.40384 30.05216 37113 ft 500 kts 82°
2026-05-07 21:14 29.40244 30.13195 37118 ft 499 kts 81°
2026-05-07 21:14 29.40097 30.21111 37112 ft 497 kts 81°
2026-05-07 21:15 29.39897 30.29056 37109 ft 501 kts 84°
2026-05-07 21:15 29.38843 30.37132 37102 ft 515 kts 95°
2026-05-07 21:16 29.36628 30.45042 37105 ft 527 kts 105°
2026-05-07 21:16 29.33317 30.52562 37097 ft 535 kts 112°
2026-05-07 21:17 29.29607 30.59982 37097 ft 535 kts 113°
2026-05-07 21:17 29.25906 30.67389 37096 ft 535 kts 112°
2026-05-07 21:18 29.22224 30.74807 37091 ft 535 kts 112°
2026-05-07 21:18 29.18545 30.82227 37089 ft 535 kts 112°
2026-05-07 21:19 29.14869 30.89637 37087 ft 535 kts 112°
2026-05-07 21:19 29.11192 30.97034 37114 ft 535 kts 112°
2026-05-07 21:20 29.07512 31.04420 37092 ft 534 kts 112°
2026-05-07 21:20 29.03827 31.11808 37094 ft 534 kts 112°
2026-05-07 21:21 29.00143 31.19180 37098 ft 534 kts 112°
2026-05-07 21:21 28.96465 31.26531 37111 ft 532 kts 113°
2026-05-07 21:22 28.92818 31.33806 37101 ft 529 kts 113°
2026-05-07 21:22 28.89145 31.41109 37070 ft 529 kts 113°
2026-05-07 21:23 28.85464 31.48416 37086 ft 531 kts 113°
2026-05-07 21:23 28.81786 31.55729 37101 ft 529 kts 114°
2026-05-07 21:24 28.78107 31.62989 37082 ft 527 kts 115°
2026-05-07 21:24 28.74428 31.70235 37075 ft 527 kts 115°
2026-05-07 21:25 28.70749 31.77484 37072 ft 527 kts 115°
2026-05-07 21:25 28.67088 31.84716 37079 ft 524 kts 116°
2026-05-07 21:26 28.63450 31.91860 37073 ft 523 kts 116°
2026-05-07 21:26 28.60383 31.97868 37069 ft 523 kts 116°
2026-05-07 21:27 28.56719 32.05041 37066 ft 523 kts 116°
2026-05-07 21:27 28.53064 32.12208 37077 ft 521 kts 117°
2026-05-07 21:28 28.49413 32.19332 37068 ft 521 kts 117°
2026-05-07 21:28 28.45780 32.26406 37068 ft 521 kts 117°
2026-05-07 21:29 28.42119 32.33527 37071 ft 521 kts 117°
2026-05-07 21:29 28.38470 32.40631 37071 ft 518 kts 117°
2026-05-07 21:30 28.34826 32.47696 37060 ft 518 kts 118°
2026-05-07 21:30 28.31172 32.54763 37066 ft 518 kts 118°
2026-05-07 21:31 28.27516 32.61827 37065 ft 518 kts 118°
2026-05-07 21:31 28.23864 32.68881 37064 ft 517 kts 118°
2026-05-07 21:32 28.20211 32.75914 37050 ft 517 kts 118°
2026-05-07 21:32 28.16556 32.82940 37052 ft 517 kts 118°
2026-05-07 21:33 28.12896 32.89968 37046 ft 517 kts 118°
2026-05-07 21:33 28.09244 32.96975 37022 ft 515 kts 118°
2026-05-07 21:34 28.05593 33.03957 37022 ft 515 kts 119°
2026-05-07 21:34 28.01961 33.10896 37006 ft 515 kts 119°
2026-05-07 21:35 27.98294 33.17893 37000 ft 515 kts 119°
2026-05-07 21:35 27.94639 33.24857 36995 ft 514 kts 119°
2026-05-07 21:36 27.90980 33.31810 36982 ft 514 kts 119°
2026-05-07 21:36 27.87316 33.38763 36972 ft 514 kts 119°
2026-05-07 21:37 27.83642 33.45729 36962 ft 516 kts 120°
2026-05-07 21:37 27.79956 33.52701 36960 ft 516 kts 120°
2026-05-07 21:38 27.76282 33.59640 36964 ft 516 kts 120°
2026-05-07 21:38 27.72590 33.66600 36964 ft 516 kts 120°
2026-05-07 21:39 27.68895 33.73565 36957 ft 517 kts 120°
2026-05-07 21:39 27.65190 33.80527 36944 ft 517 kts 120°
2026-05-07 21:40 27.61480 33.87486 36947 ft 517 kts 120°
2026-05-07 21:40 27.57768 33.94441 36937 ft 517 kts 120°
2026-05-07 21:41 27.54060 34.01383 36936 ft 516 kts 121°
2026-05-07 21:41 27.50352 34.08304 36936 ft 515 kts 121°
2026-05-07 21:42 27.46667 34.15173 36928 ft 515 kts 121°
2026-05-07 21:42 27.42954 34.22087 36936 ft 515 kts 121°
2026-05-07 21:43 27.39240 34.28998 36928 ft 514 kts 121°
2026-05-07 21:43 27.35525 34.35888 36921 ft 514 kts 121°
2026-05-07 21:44 27.31799 34.42791 36918 ft 516 kts 121°
2026-05-07 21:44 27.28060 34.49709 36919 ft 517 kts 121°
2026-05-07 21:45 27.24351 34.56562 36917 ft 516 kts 121°
2026-05-07 21:45 27.20608 34.63461 36917 ft 516 kts 121°
2026-05-07 21:46 27.16870 34.70343 36914 ft 516 kts 121°
2026-05-07 21:46 27.13120 34.77239 36914 ft 515 kts 122°
2026-05-07 21:47 27.09385 34.84095 36912 ft 514 kts 122°
2026-05-07 21:47 27.05647 34.90943 36911 ft 514 kts 122°
2026-05-07 21:48 27.01905 34.97790 36908 ft 514 kts 122°
2026-05-07 21:48 26.98182 35.04597 36904 ft 512 kts 122°
2026-05-07 21:49 26.94474 35.11358 36901 ft 511 kts 122°
2026-05-07 21:49 26.90747 35.18146 36901 ft 511 kts 122°
2026-05-07 21:50 26.87013 35.24935 36889 ft 511 kts 122°
2026-05-07 21:50 26.83281 35.31718 36880 ft 510 kts 122°
2026-05-07 21:51 26.79539 35.38505 36896 ft 512 kts 123°
2026-05-07 21:51 26.75785 35.45297 36891 ft 512 kts 123°
2026-05-07 21:52 26.72031 35.52085 36899 ft 512 kts 123°
2026-05-07 21:52 26.68289 35.58845 36895 ft 510 kts 123°
2026-05-07 21:53 26.64546 35.65583 36890 ft 509 kts 123°
2026-05-07 21:53 26.60801 35.72320 36890 ft 509 kts 123°
2026-05-07 21:54 26.57061 35.79049 36890 ft 508 kts 124°
2026-05-07 21:54 26.53330 35.85744 36889 ft 507 kts 124°
2026-05-07 21:55 26.49596 35.92427 36890 ft 507 kts 124°
2026-05-07 21:55 26.45885 35.99065 36890 ft 507 kts 124°
2026-05-07 21:56 26.42150 36.05737 36884 ft 507 kts 124°
2026-05-07 21:56 26.38407 36.12415 36884 ft 507 kts 124°
2026-05-07 21:57 26.34667 36.19078 36885 ft 507 kts 124°
2026-05-07 21:57 26.30926 36.25741 36859 ft 508 kts 125°
2026-05-07 21:58 26.27177 36.32420 36881 ft 507 kts 126°
2026-05-07 21:58 26.23433 36.39093 36877 ft 508 kts 123°
2026-05-07 21:59 26.20527 36.46305 36881 ft 513 kts 110°
2026-05-07 21:59 26.19065 36.54118 36885 ft 519 kts 97°
2026-05-07 22:00 26.19134 36.62187 36883 ft 523 kts 85°
2026-05-07 22:00 26.19967 36.70246 36904 ft 522 kts 84°
2026-05-07 22:01 26.20824 36.78268 36891 ft 522 kts 85°
2026-05-07 22:01 26.21646 36.86338 36903 ft 524 kts 85°
2026-05-07 22:02 26.22445 36.94419 36911 ft 524 kts 85°
2026-05-07 22:02 26.23235 37.02447 36898 ft 527 kts 86°
2026-05-07 22:03 26.24031 37.10603 36916 ft 530 kts 86°
2026-05-07 22:03 26.24821 37.18787 36932 ft 530 kts 86°
2026-05-07 22:04 26.25613 37.26980 36926 ft 531 kts 87°
2026-05-07 22:04 26.26399 37.35185 36953 ft 530 kts 87°
2026-05-07 22:05 26.27176 37.43360 36957 ft 530 kts 87°
2026-05-07 22:05 26.27949 37.51485 36941 ft 530 kts 87°
2026-05-07 22:06 26.28723 37.59694 36954 ft 532 kts 88°
2026-05-07 22:06 26.29490 37.67906 36958 ft 532 kts 88°
2026-05-07 22:07 26.30265 37.76114 36939 ft 533 kts 89°
2026-05-07 22:07 26.31020 37.84357 36943 ft 533 kts 89°
2026-05-07 22:08 26.31763 37.92587 36969 ft 532 kts 88°
2026-05-07 22:08 26.32513 38.00765 36939 ft 531 kts 89°
2026-05-07 22:09 26.33259 38.08973 36933 ft 531 kts 89°
2026-05-07 22:09 26.34000 38.17168 36941 ft 531 kts 89°
2026-05-07 22:10 26.34741 38.25396 36935 ft 534 kts 90°
2026-05-07 22:10 26.35463 38.33658 36944 ft 535 kts 90°
2026-05-07 22:11 26.36185 38.41938 36953 ft 535 kts 90°
2026-05-07 22:11 26.36907 38.50212 36999 ft 535 kts 90°
2026-05-07 22:12 26.37624 38.58454 36971 ft 532 kts 90°
2026-05-07 22:12 26.38336 38.66689 36937 ft 532 kts 90°
2026-05-07 22:13 26.39045 38.74927 36962 ft 539 kts 91°
2026-05-07 22:13 26.39755 38.83291 36980 ft 540 kts 91°
2026-05-07 22:14 26.40463 38.91638 36964 ft 541 kts 91°
2026-05-07 22:14 26.41167 39.00004 36977 ft 544 kts 91°
2026-05-07 22:15 26.41754 39.07041 36980 ft 544 kts 91°
2026-05-07 22:15 26.42456 39.15446 36969 ft 543 kts 91°
2026-05-07 22:16 26.43153 39.23862 36981 ft 544 kts 91°
2026-05-07 22:16 26.43738 39.32270 36985 ft 542 kts 94°
2026-05-07 22:17 26.44131 39.40687 36981 ft 542 kts 95°
2026-05-07 22:17 26.44519 39.49091 36987 ft 542 kts 94°
2026-05-07 22:18 26.45131 39.61718 36983 ft 543 kts 95°
2026-05-07 22:19 26.45541 39.70175 37008 ft 545 kts 95°
2026-05-07 22:19 26.45942 39.78625 36998 ft 544 kts 94°
2026-05-07 22:20 26.46347 39.87049 36996 ft 547 kts 95°
2026-05-07 22:20 26.46744 39.95548 36998 ft 548 kts 95°
2026-05-07 22:21 26.47138 40.04079 36978 ft 548 kts 95°
2026-05-07 22:21 26.47530 40.12610 36990 ft 551 kts 95°
2026-05-07 22:22 26.47914 40.21170 36989 ft 551 kts 95°
2026-05-07 22:22 26.48296 40.29733 36970 ft 553 kts 96°
2026-05-07 22:23 26.48672 40.38309 36985 ft 551 kts 95°
2026-05-07 22:23 26.49048 40.46877 36980 ft 551 kts 95°
2026-05-07 22:24 26.49415 40.55391 36969 ft 554 kts 95°
2026-05-07 22:24 26.49771 40.64008 36968 ft 554 kts 96°
2026-05-07 22:25 26.50122 40.72623 36972 ft 554 kts 96°
2026-05-07 22:25 26.50474 40.81238 36967 ft 554 kts 96°
2026-05-07 22:26 26.50823 40.89850 36963 ft 554 kts 96°
2026-05-07 22:26 26.51166 40.98463 36964 ft 553 kts 96°
2026-05-07 22:27 26.51227 41.06962 36958 ft 545 kts 102°
2026-05-07 22:27 26.50673 41.15383 36940 ft 542 kts 104°
2026-05-07 22:28 26.50049 41.23783 36949 ft 541 kts 104°
2026-05-07 22:28 26.49437 41.32170 36954 ft 541 kts 104°
2026-05-07 22:29 26.48833 41.40553 36936 ft 541 kts 104°
2026-05-07 22:29 26.48227 41.48941 36944 ft 541 kts 104°
2026-05-07 22:30 26.47617 41.57326 36913 ft 541 kts 104°
2026-05-07 22:30 26.47002 41.65708 36940 ft 541 kts 104°
2026-05-07 22:31 26.46383 41.74086 36946 ft 539 kts 104°
2026-05-07 22:31 26.45760 41.82440 36927 ft 540 kts 104°
2026-05-07 22:32 26.45130 41.90811 36935 ft 540 kts 104°
2026-05-07 22:32 26.44497 41.99181 36920 ft 541 kts 104°
2026-05-07 22:33 26.43852 42.07596 36940 ft 543 kts 104°
2026-05-07 22:33 26.43206 42.16015 36946 ft 544 kts 104°
2026-05-07 22:34 26.42560 42.24372 36934 ft 543 kts 104°
2026-05-07 22:34 26.41905 42.32787 36945 ft 543 kts 104°
2026-05-07 22:35 26.41244 42.41187 36924 ft 543 kts 104°
2026-05-07 22:35 26.40582 42.49558 36972 ft 540 kts 104°
2026-05-07 22:36 26.39915 42.57925 36965 ft 541 kts 104°
2026-05-07 22:36 26.39242 42.66294 36953 ft 540 kts 104°
2026-05-07 22:37 26.38566 42.74646 36963 ft 539 kts 104°
2026-05-07 22:37 26.37887 42.82995 36965 ft 539 kts 104°
2026-05-07 22:38 26.37204 42.91338 36976 ft 539 kts 104°
2026-05-07 22:38 26.36519 42.99676 36970 ft 539 kts 104°
2026-05-07 22:39 26.35825 43.07936 36943 ft 539 kts 104°
2026-05-07 22:39 26.35117 43.16265 36962 ft 538 kts 104°
2026-05-07 22:40 26.34411 43.24581 36965 ft 538 kts 104°
2026-05-07 22:40 26.33701 43.32919 36977 ft 539 kts 104°
2026-05-07 22:41 26.32987 43.41266 36964 ft 540 kts 104°
2026-05-07 22:41 26.32266 43.49606 36959 ft 540 kts 104°
2026-05-07 22:42 26.31544 43.57951 36971 ft 540 kts 104°
2026-05-07 22:42 26.30818 43.66297 36946 ft 540 kts 104°
2026-05-07 22:43 26.30088 43.74632 36967 ft 539 kts 104°
2026-05-07 22:43 26.29784 43.83061 36966 ft 546 kts 98°
2026-05-07 22:44 26.29856 43.91565 36965 ft 549 kts 97°
2026-05-07 22:44 26.29954 44.00074 36982 ft 548 kts 97°
2026-05-07 22:45 26.30028 44.08573 36963 ft 548 kts 97°
2026-05-07 22:45 26.30087 44.17028 36963 ft 548 kts 97°
2026-05-07 22:46 26.30140 44.25532 36935 ft 548 kts 97°
2026-05-07 22:46 26.30190 44.34049 36957 ft 548 kts 97°
2026-05-07 22:47 26.30241 44.42551 36938 ft 548 kts 97°
2026-05-07 22:47 26.30282 44.51063 36959 ft 548 kts 97°
2026-05-07 22:48 26.30315 44.59564 36975 ft 548 kts 97°
2026-05-07 22:48 26.30337 44.68079 36962 ft 548 kts 97°
2026-05-07 22:49 26.30364 44.76533 36968 ft 548 kts 97°
2026-05-07 22:49 26.30390 44.85043 36978 ft 548 kts 97°
2026-05-07 22:50 26.30402 44.93546 36980 ft 548 kts 97°
2026-05-07 22:50 26.30402 45.02077 36965 ft 548 kts 97°
2026-05-07 22:51 26.30402 45.10572 36985 ft 548 kts 97°
2026-05-07 22:51 26.30405 45.19080 36986 ft 548 kts 97°
2026-05-07 22:52 26.30401 45.27600 36990 ft 549 kts 97°
2026-05-07 22:52 26.30382 45.36129 36996 ft 549 kts 97°
2026-05-07 22:53 26.30355 45.44649 36997 ft 550 kts 97°
2026-05-07 22:53 26.30329 45.53138 36988 ft 550 kts 97°
2026-05-07 22:54 26.30302 45.61676 36997 ft 550 kts 97°
2026-05-07 22:54 26.30271 45.70234 36997 ft 551 kts 97°
2026-05-07 22:55 26.30234 45.78776 36998 ft 551 kts 97°
2026-05-07 22:55 26.30192 45.87341 36996 ft 551 kts 97°
2026-05-07 22:56 26.30145 45.95897 37002 ft 552 kts 97°
2026-05-07 22:56 26.30093 46.04485 36976 ft 552 kts 97°
2026-05-07 22:57 26.30039 46.13035 37006 ft 550 kts 97°
2026-05-07 22:57 26.29981 46.21580 37005 ft 551 kts 97°
2026-05-07 22:58 26.29913 46.30078 37008 ft 551 kts 97°
2026-05-07 22:58 26.29838 46.38643 37011 ft 551 kts 97°
2026-05-07 22:59 26.29764 46.47202 37015 ft 551 kts 97°
2026-05-07 22:59 26.29676 46.55767 37013 ft 551 kts 97°
2026-05-07 23:00 26.29577 46.64323 36997 ft 551 kts 97°
2026-05-07 23:00 26.29480 46.72811 37003 ft 550 kts 97°
2026-05-07 23:01 26.29381 46.81351 36998 ft 550 kts 97°
2026-05-07 23:01 26.29279 46.89874 36999 ft 549 kts 97°
2026-05-07 23:02 26.29171 46.98412 36990 ft 549 kts 97°
2026-05-07 23:02 26.29060 47.06921 36989 ft 549 kts 97°
2026-05-07 23:03 26.28946 47.15442 36990 ft 549 kts 97°
2026-05-07 23:03 26.28816 47.23976 36989 ft 549 kts 98°
2026-05-07 23:04 26.28684 47.31070 36983 ft 549 kts 98°
2026-05-07 23:04 26.28524 47.39591 36969 ft 549 kts 97°
2026-05-07 23:05 26.28367 47.48116 36976 ft 549 kts 97°
2026-05-07 23:05 26.28209 47.56643 36981 ft 549 kts 97°
2026-05-07 23:06 26.28164 47.65174 36964 ft 552 kts 94°
2026-05-07 23:06 26.28886 47.73689 36959 ft 558 kts 86°
2026-05-07 23:07 26.30468 47.82210 36947 ft 561 kts 81°
2026-05-07 23:07 26.32273 47.90676 36945 ft 559 kts 81°
2026-05-07 23:08 26.34029 47.99124 36950 ft 557 kts 81°
2026-05-07 23:08 26.35743 48.07583 36942 ft 557 kts 81°
2026-05-07 23:09 26.37440 48.16029 36938 ft 556 kts 81°
2026-05-07 23:09 26.39139 48.24472 36924 ft 556 kts 81°
2026-05-07 23:10 26.40819 48.32829 36929 ft 555 kts 81°
2026-05-07 23:10 26.42509 48.41243 36924 ft 555 kts 81°
2026-05-07 23:11 26.44196 48.49661 36920 ft 555 kts 81°
2026-05-07 23:11 26.45878 48.58084 36912 ft 555 kts 81°
2026-05-07 23:12 26.47266 48.66549 36903 ft 551 kts 88°
2026-05-07 23:12 26.47793 48.75046 36907 ft 546 kts 94°
2026-05-07 23:13 26.47951 48.83538 36905 ft 546 kts 94°
2026-05-07 23:13 26.48108 48.92027 36897 ft 546 kts 94°
2026-05-07 23:14 26.48281 49.00498 36897 ft 546 kts 94°
2026-05-07 23:14 26.48458 49.08968 36877 ft 544 kts 94°
2026-05-07 23:15 26.48631 49.17416 36888 ft 543 kts 94°
2026-05-07 23:15 26.48800 49.25864 36882 ft 543 kts 94°
2026-05-07 23:16 26.48962 49.34256 36885 ft 543 kts 94°
2026-05-07 23:16 26.49121 49.42706 36871 ft 543 kts 94°
2026-05-07 23:17 26.49275 49.51161 36872 ft 543 kts 94°
2026-05-07 23:17 26.49425 49.59598 36862 ft 544 kts 94°
2026-05-07 23:18 26.49575 49.68048 36852 ft 544 kts 94°
2026-05-07 23:18 26.49701 49.76496 36819 ft 542 kts 95°
2026-05-07 23:19 26.49378 49.84877 36836 ft 538 kts 99°
2026-05-07 23:19 26.48896 49.93218 36824 ft 538 kts 99°
2026-05-07 23:20 26.48416 50.01589 36832 ft 538 kts 99°
2026-05-07 23:20 26.47950 50.09889 36821 ft 537 kts 99°
2026-05-07 23:21 26.47483 50.18229 36817 ft 537 kts 99°
2026-05-07 23:21 26.47009 50.26573 36818 ft 538 kts 99°
2026-05-07 23:22 26.46347 50.34889 36802 ft 534 kts 104°
2026-05-07 23:22 26.44899 50.42952 36820 ft 525 kts 111°
2026-05-07 23:23 26.43503 50.48198 36826 ft 515 kts 114°
2026-05-07 23:26 26.43467 50.48328 36826 ft 522 kts 114°
2026-05-07 23:26 26.42369 50.52198 36650 ft 523 kts 114°
2026-05-07 23:27 26.40186 50.59917 36145 ft 519 kts 114°
2026-05-07 23:27 26.39105 50.63744 35913 ft 516 kts 114°
2026-05-07 23:27 26.38022 50.67560 35663 ft 514 kts 114°
2026-05-07 23:28 26.36940 50.71366 35353 ft 514 kts 114°
2026-05-07 23:28 26.35856 50.75173 34932 ft 515 kts 114°
2026-05-07 23:28 26.34770 50.78977 34396 ft 516 kts 114°
2026-05-07 23:28 26.33683 50.82783 33790 ft 517 kts 114°
2026-05-07 23:29 26.32591 50.86607 33094 ft 518 kts 113°
2026-05-07 23:29 26.31443 50.90423 32413 ft 517 kts 116°
2026-05-07 23:29 26.30124 50.94144 31739 ft 515 kts 118°
2026-05-07 23:29 26.28630 50.97768 31066 ft 513 kts 121°
2026-05-07 23:30 26.26983 51.01281 30389 ft 512 kts 124°
2026-05-07 23:30 26.25232 51.04746 29657 ft 513 kts 124°
2026-05-07 23:30 26.23473 51.08208 28887 ft 513 kts 124°
2026-05-07 23:30 26.21709 51.11694 28125 ft 512 kts 123°
2026-05-07 23:31 26.19966 51.15150 27473 ft 509 kts 123°
2026-05-07 23:31 26.18251 51.18562 27076 ft 501 kts 123°
2026-05-07 23:31 26.16558 51.21934 26594 ft 495 kts 123°
2026-05-07 23:31 26.14884 51.25262 26081 ft 490 kts 123°
2026-05-07 23:32 26.13244 51.28520 25593 ft 486 kts 123°
2026-05-07 23:32 26.11596 51.31791 25060 ft 482 kts 122°
2026-05-07 23:32 26.09965 51.35025 24585 ft 477 kts 122°
2026-05-07 23:32 26.08346 51.38230 24129 ft 472 kts 122°
2026-05-07 23:33 26.06743 51.41394 23691 ft 467 kts 122°
2026-05-07 23:33 26.05152 51.44528 23228 ft 462 kts 122°
2026-05-07 23:33 26.03579 51.47628 22730 ft 457 kts 122°
2026-05-07 23:33 26.02032 51.50678 22277 ft 451 kts 122°
2026-05-07 23:34 26.00496 51.53708 21825 ft 445 kts 122°
2026-05-07 23:34 25.98986 51.56685 21392 ft 440 kts 122°
2026-05-07 23:34 25.97490 51.59636 20968 ft 435 kts 122°
2026-05-07 23:34 25.96011 51.62551 20536 ft 430 kts 122°
2026-05-07 23:35 25.94546 51.65436 20113 ft 426 kts 122°
2026-05-07 23:35 25.93095 51.68287 19698 ft 422 kts 122°
2026-05-07 23:35 25.91651 51.71116 19274 ft 418 kts 122°
2026-05-07 23:35 25.90231 51.73920 18855 ft 415 kts 121°
2026-05-07 23:36 25.88851 51.76733 18433 ft 412 kts 121°
2026-05-07 23:36 25.87506 51.79500 18239 ft 401 kts 121°
2026-05-07 23:36 25.86203 51.82179 18112 ft 388 kts 121°
2026-05-07 23:36 25.84897 51.84750 17962 ft 374 kts 127°
2026-05-07 23:37 25.83132 51.86771 17757 ft 358 kts 147°
2026-05-07 23:37 25.80965 51.88006 17456 ft 347 kts 164°
2026-05-07 23:37 25.78660 51.88704 17142 ft 340 kts 167°
2026-05-07 23:37 25.76380 51.89339 16844 ft 335 kts 167°
2026-05-07 23:38 25.74142 51.89963 16570 ft 329 kts 167°
2026-05-07 23:38 25.71952 51.90586 16276 ft 323 kts 166°
2026-05-07 23:38 25.69789 51.91210 16007 ft 317 kts 166°
2026-05-07 23:38 25.67667 51.91824 15697 ft 314 kts 166°
2026-05-07 23:39 25.65559 51.92433 15347 ft 312 kts 166°
2026-05-07 23:39 25.63442 51.92899 15005 ft 310 kts 179°
2026-05-07 23:39 25.61330 51.92532 14710 ft 308 kts 200°
2026-05-07 23:39 25.59496 51.91350 14426 ft 306 kts 218°
2026-05-07 23:40 25.57887 51.89821 14138 ft 304 kts 220°
2026-05-07 23:40 25.56302 51.88278 13855 ft 303 kts 220°
2026-05-07 23:40 25.54710 51.86736 13554 ft 302 kts 220°
2026-05-07 23:40 25.53132 51.85219 13236 ft 300 kts 220°
2026-05-07 23:41 25.51562 51.83714 13019 ft 295 kts 220°
2026-05-07 23:41 25.50006 51.82255 13013 ft 292 kts 217°
2026-05-07 23:41 25.48368 51.80936 13003 ft 289 kts 212°
2026-05-07 23:41 25.46649 51.79777 12607 ft 290 kts 208°
2026-05-07 23:42 25.44888 51.78667 11933 ft 302 kts 208°
2026-05-07 23:42 25.43044 51.77516 11494 ft 304 kts 208°
2026-05-07 23:42 25.41216 51.76373 11161 ft 301 kts 208°
2026-05-07 23:42 25.39401 51.75229 10827 ft 299 kts 208°
2026-05-07 23:43 25.37598 51.74096 10499 ft 297 kts 208°
2026-05-07 23:43 25.35790 51.72953 10176 ft 294 kts 207°
2026-05-07 23:43 25.34044 51.71855 9866 ft 292 kts 207°
2026-05-07 23:43 25.32256 51.70794 9500 ft 290 kts 199°
2026-05-07 23:44 25.30293 51.70531 9047 ft 286 kts 169°
2026-05-07 23:44 25.28430 51.71222 8717 ft 281 kts 156°
2026-05-07 23:44 25.26622 51.72056 8321 ft 282 kts 156°
2026-05-07 23:44 25.24803 51.72883 7939 ft 283 kts 157°
2026-05-07 23:45 25.22975 51.73699 7555 ft 284 kts 158°
2026-05-07 23:45 25.21144 51.74507 7229 ft 282 kts 158°
2026-05-07 23:45 25.19332 51.75303 6944 ft 279 kts 158°
2026-05-07 23:45 25.17533 51.76088 6589 ft 277 kts 158°
2026-05-07 23:46 25.15745 51.76870 6257 ft 276 kts 158°
2026-05-07 23:46 25.13964 51.77651 5899 ft 275 kts 159°
2026-05-07 23:46 25.12178 51.78433 5533 ft 275 kts 159°
2026-05-07 23:46 25.10409 51.79207 5230 ft 271 kts 159°
2026-05-07 23:47 25.08651 51.79946 4988 ft 266 kts 165°
2026-05-07 23:47 25.06849 51.79941 4693 ft 260 kts 201°
2026-05-07 23:47 25.05440 51.78785 4416 ft 253 kts 238°
2026-05-07 23:47 25.04754 51.77030 4211 ft 247 kts 254°
2026-05-07 23:48 25.04281 51.75215 3987 ft 242 kts 261°
2026-05-07 23:48 25.04372 51.73401 3723 ft 235 kts 292°
2026-05-07 23:48 25.05282 51.71963 3460 ft 228 kts 319°
2026-05-07 23:48 25.06618 51.71033 3109 ft 227 kts 335°
2026-05-07 23:49 25.08062 51.70371 2842 ft 222 kts 339°
2026-05-07 23:49 25.09497 51.69775 2643 ft 213 kts 340°
2026-05-07 23:49 25.10823 51.69214 2659 ft 195 kts 339°
2026-05-07 23:49 25.12038 51.68684 2621 ft 182 kts 339°
2026-05-07 23:50 25.13208 51.68165 2475 ft 180 kts 339°
2026-05-07 23:50 25.14356 51.67653 2232 ft 174 kts 339°
2026-05-07 23:50 25.15084 51.67327 2074 ft 166 kts 339°
2026-05-07 23:50 25.16129 51.66859 1872 ft 160 kts 339°
2026-05-07 23:51 25.17159 51.66400 1690 ft 159 kts 340°
2026-05-07 23:51 25.18184 51.65944 1500 ft 159 kts 340°
2026-05-07 23:51 25.19205 51.65490 1303 ft 158 kts 340°
2026-05-07 23:51 25.20231 51.65035 1094 ft 154 kts 340°
2026-05-07 23:52 25.21208 51.64602 891 ft 150 kts 339°
2026-05-07 23:52 25.22181 51.64171 731 ft 149 kts 338°
2026-05-07 23:52 25.23140 51.63742 713 ft 149 kts 335°
2026-05-07 23:52 25.24097 51.63305 631 ft 149 kts 333°
2026-05-07 23:53 25.25061 51.62893 301 ft 145 kts 333°
2026-05-07 23:53 25.25986 51.62496 91 ft 141 kts 334°
2026-05-07 23:53 25.26873 51.62099 30 ft 123 kts 333°
2026-05-07 23:53 25.27431 51.61832 32 ft 58 kts 344°
2026-05-07 23:54 25.27591 51.61761 31 ft 7 kts 314°
2026-05-07 23:54 25.27600 51.61737 31 ft 4 kts 260°
2026-05-07 23:54 25.27583 51.61677 30 ft 11 kts 250°
2026-05-07 23:54 25.27564 51.61623 30 ft 8 kts 246°
2026-05-07 23:55 25.27554 51.61599 30 ft 3 kts 245°
2026-05-07 23:55 25.27533 51.61558 30 ft 9 kts 228°
2026-05-07 23:55 25.27458 51.61517 30 ft 16 kts 203°
2026-05-07 23:55 25.27344 51.61493 30 ft 17 kts 168°
2026-05-07 23:56 25.27231 51.61534 31 ft 20 kts 158°
2026-05-07 23:56 25.27113 51.61586 31 ft 19 kts 158°
2026-05-07 23:56 25.27016 51.61565 31 ft 0 kts 224°
2026-05-07 23:56 25.26994 51.61540 31 ft 11 kts 226°
2026-05-07 23:57 25.26914 51.61444 31 ft 20 kts 226°
2026-05-07 23:57 25.26794 51.61371 31 ft 17 kts 197°
2026-05-07 23:57 25.26728 51.61342 31 ft 10 kts 219°
2026-05-07 23:57 25.26694 51.61291 31 ft 2 kts 251°
2026-05-07 23:58 25.26685 51.61269 31 ft 0 kts 244°
2026-05-07 23:58 25.26681 51.61260 31 ft 0 kts 246°
2026-05-07 23:58 25.26680 51.61258 31 ft 0 kts 246°
2026-05-07 23:59 25.26678 51.61254 31 ft 1 kts 246°
2026-05-07 23:59 25.26676 51.61247 31 ft 0 kts 247°